Regional Weather Roundup
Issued by NWS Wakefield, VA

Home | Current Version | Previous Version | Text Only | Print | Product List | Glossary Off
Versions: 1 2 3 4 5 6 7 8 9 10 11 12 13 14 15 16 17 18 19 20 21 22 23 24 25 26 27 28 29 30 31 32 33 34 35 36 37 38 39 40 41 42 43 44 45 46 47 48 49 50

000
ASUS41 KAKQ 300215
RWRAKQ

REGIONAL WEATHER ROUNDUP
NATIONAL WEATHER SERVICE WAKEFIELD VA
1000 PM EDT FRI APR 29 2016

Note: "fair" indicates few or no clouds below 12,000 feet with no
significant weather and/or obstructions to visibility. * = Denotes
station may not report precipitation (e.g., rain,snow,etc.),
thunder or fog.

VAZ042-051-052>054-056-300300-
NORTHERN VIRGINIA

CITY           SKY/WX    TMP DP  RH WIND       PRES   REMARKS
WASH NATIONAL  CLOUDY    53  50  89 NE6       30.11R
DULLES         CLOUDY    53  49  86 E6        30.10R
FORT BELVOIR   CLOUDY    53  50  90 VRB1      30.10R
QUANTICO       CLOUDY    55  51  86 E8        30.11R
FREDERICKSBRG* CLOUDY    55  55 100 NE6       30.09R
STAFFORD*      CLOUDY    54  50  89 NE3       30.13R
WARRENTON      CLOUDY    55  48  80 NE3       30.09R
CULPEPER*      CLOUDY    54  54  99 CALM      30.11R FOG
MANASSAS*      CLOUDY    54  54 100 NE3       30.10R
LEESBURG*      CLOUDY    54  52  94 E5        30.11R
WINCHESTER     CLOUDY    52  50  93 CALM      30.09R FOG
FRONT ROYAL*   CLOUDY    52  50  93 CALM      30.08R
LURAY*         CLOUDY    54  52  94 N10       30.08R
$$

VAZ048-049-060>072-079>083-300300-
CENTRAL AND SOUTH CENTRAL VIRGINIA

CITY           SKY/WX    TMP DP  RH WIND       PRES   REMARKS
RICHMOND       CLOUDY    56  53  90 NE7       30.05R
CHESTERFIELD*  CLOUDY    59  45  58 E5        30.07R
PETERSBURG*    CLOUDY    60  55  84 E3        30.06R
HANOVER        CLOUDY    56  51  84 CALM      30.08R
TAPPAHANNOCK*  CLOUDY    55  54  97 NE6       30.09R FOG
QUINTON*       CLOUDY    56  54  92 NE6       30.06R
CHARLOTTSVILLE CLOUDY    54  52  93 NE5       30.07R
GORDONSVILLE*  CLOUDY    53  53  99 NE5       30.08R FOG
ORANGE*        CLOUDY    54  54 100 CALM      30.11R FOG
LOUISA*        CLOUDY    57  55  94 N5        30.07R FOG
BUMPASS*       CLOUDY    55  53  94 NE3       30.08R
FARMVILLE*     CLOUDY    59  57  95 N7        30.04R
CREWE*         CLOUDY    59  59 100 N3        30.04R
FORT PICKETT*  NOT AVBL
CHASE CITY*    MOCLDY    58  57  94 CALM      30.03R
CLARKSVILLE*   FAIR      61  57  88 E5        30.02R
SOUTH HILL*    FAIR      56  56  98 CALM      30.09R
LAWRENCEVILLE* MOCLDY    57  57  99 CALM      30.03R
EMPORIA*       CLOUDY    57  55  94 N5        30.04S
$$

VAZ088>098-300300-
SOUTHEAST VIRGINIA

CITY           SKY/WX    TMP DP  RH WIND       PRES   REMARKS
NORFOLK        CLOUDY    55  53  93 E6        30.04R FOG
VIRGINIA BEACH DRZL/FOG  57  52  83 NE3       30.03R VSB 1
NORFOLK NAVAL  CLOUDY    57  55  93 E5        30.06S FOG
WEST POINT*    CLOUDY    55  53  93 NE6       30.09R
SALUDA*        CLOUDY    54  53  95 N6        30.07R
NEWPORT NEWS   CLOUDY    56  54  93 N6        30.05R
LANGLEY AFB    CLOUDY    56  54  92 NE7       30.04R
FORT EUSTIS    CLOUDY    56  55  97 VRB3      30.04R
WILLIAMSBURG*  CLOUDY    57  57 100 CALM      30.07R
HR EXEC AP*    CLOUDY    57  54  88 NE3       30.07R
FRANKLIN*      CLOUDY    58  54  85 E5        30.04S
US460-WAKEFLD  CLOUDY    59  54  83 CALM      30.04R
$$

VAZ020-022-025-037-045-300300-
WEST CENTRAL AND SOUTHWEST VIRGINIA

CITY           SKY/WX    TMP DP  RH WIND       PRES   REMARKS
STAUNTON*      CLOUDY    58  55  91 N7        30.08R
WAYNESBORO*    CLOUDY    53  50  90 MISG      30.06R
HOT SPRINGS VA FAIR      61  45  54 NW7       30.07R
LYNCHBURG      CLOUDY    56  54  93 NE7       30.05R
DANVILLE       FAIR      63  32  31 NE9       30.00R
SOUTH BOSTON*  FAIR      60  59  96 NE5       30.02R
MARTINSVILLE   FAIR      65  58  76 E5        30.02R
ROANOKE        FAIR      62  58  86 SE10      30.03R
BLACKSBURG     FAIR      67  48  51 W5        30.06S
DUBLIN*        FAIR      66  49  53 W5        30.05R
MARION*        FAIR      65  50  57 W7        30.09S
HILLSVILLE*    FAIR      67  50  54 W6        30.05R
RICHLANDS*     FAIR      66  30  26 NW5       30.07S
WISE*          FAIR      64  37  36 CALM      30.09S
ABINGDON*      FAIR      65  53  65 CALM      30.06R
$$

MDZ021>025-VAZ099-100-300300-
SOUTHERN MARYLAND AND THE DELMARVA PENINSULA

CITY           SKY/WX    TMP DP  RH WIND       PRES   REMARKS
PATUXENT RIVER CLOUDY    52  49  89 NE8       30.09R
BAY BRIDGE APT NOT AVBL
LEONARDTOWN    CLOUDY    52  50  93 NE6       30.11R
DOVER          CLOUDY    49  49 100 VRB5      30.11R
GEORGETOWN     CLOUDY    50  48  93 N6        30.10R
EASTON         NOT AVBL
CAMBRIDGE      CLOUDY    50  48  93 NE3       30.10R
SALISBURY      CLOUDY    50  49  96 NE8       30.07R FOG
OCEAN CITY     CLOUDY    50  48  93 NE8       30.07R
WALLOPS ISLAND CLOUDY    51  50  96 N7        30.08R FOG
ACCOMACK*      CLOUDY    50  32  50 NE5       30.07R HAZE
$$

NCZ012>017-030>032-300300-
NORTH CENTRAL AND EASTERN NORTH CAROLINA

CITY           SKY/WX    TMP DP  RH WIND       PRES   REMARKS
ROANOKE RAPIDS FAIR      55  55 100 CALM      30.02R
RALEIGH        PTCLDY    66  59  78 SE3       29.99R
ELIZABETH CITY CLOUDY    57  54  89 NE6       30.04R
AHOSKIE*       CLOUDY    60  56  87 NE5       30.03R
EDENTON*       CLOUDY    61  60  95 E5        30.04S
CURRITUCK*     CLOUDY    56  56  99 NE5       30.05S FOG
KILL DEVIL HLS CLOUDY    55  54  95 NE6       30.03R FOG
MANTEO         NOT AVBL
CAPE HATTERAS  CLOUDY    60  57  89 N8G17     30.02R
TARBORO*       FAIR      60  58  95 CALM      30.01S
GOLDSBORO      CLEAR     61  61 100 E7        29.98S
WASHINGTON     CLOUDY    59  57  94 E3        30.01S
GREENVILLE     CLOUDY    61  59  94 CALM      30.02S
NEW BERN       CLEAR     63  58  83 E7        30.01S
WILMINGTON     CLEAR     65  61  87 CALM      30.00R
$$

VAZ048-300300-
ELSEWHERE

CITY           SKY/WX    TMP DP  RH WIND       PRES   REMARKS
HARRISBURG PA  DRIZZLE   48  46  93 E6        30.11R FOG
BALTIMORE      DRIZZLE   51  49  92 E7        30.10R
ANNAPOLIS      CLOUDY    51  50  96 MISG      30.11R
ANDREWS AFB    CLOUDY    51  50  96 NE6       30.09R
PHILADELPHIA   CLOUDY    49  40  71 NE7       30.13R
HENDERSON NC   CLEAR     61  61  99 CALM      30.01R
GREENSBORO     MOCLDY    71  55  56 CALM      29.97R
ROCKY MOUNT    PTCLDY    58  58 100 CALM      30.01R
$$

VAZ100-300300-
MARINE

STATION/POSITION TIME  TEMP    WIND        PRES    WAVE   SWELL
                       AIR SEA DIR/SP/G            HT/PER HT/PER
                 (UTC) (F)     (DEG/KT/KT) (MB)    (FT/S) (FT/S)
BRANDYWINE LGT   0100   49                 1018.0R
CAPE MAY NJ      0100   49 57              1016.7F
LEWES DE         0100   51 55              1017.5F
15NM E FENWICK I 0150   50 50              1016.9F   7/ 8
OCEAN-CITY-INLET 0100   50 54              1017.3R
WACHAPREAGUE VA  0100   53 59              1016.8R
THOMAS POINT MD  0200   51 57   70/  6/  7 1021.0R
GOOSES REEF MD   0200   52 57   80/ 10/ 12 1020.0R   1/ 2
COVE POINT MD    0100   51                 1019.0R
SOLOMONS ISLAND  0100   53 60                N/A
BISHOPS HEAD MD  0100   52 58              1017.5R
PINEY POINT MD   0100           30/  6/  7   N/A
POTOMAC MD       0200   54 58   60/ 10/ 12 1017.5R   0
CAMBRIDGE MD     0100   51 60              1017.8R
LEWISETTA VA     0100   54 60              1017.8R
RAPPAHANNOCK LGT 0100                      1017.4R
STINGRAY PT      0200   56 60   40/ 12/ 14 1018.4R   1/ 2
YORK RVR RNG VA  0100   57                 1016.3R
YORKTOWN VA      0100   56 62              1016.8R
JAMESTOWN VA     0200   56 67   40/  6/ 10   N/A     0
DOMINION TERM VA 0100   57                 1017.0R
KIPTOPEKE VA     0100      60                N/A
CHES BAY BRIDGE  0100   55 60              1016.4R
CAPE HENRY VA    0100   54                   N/A
CHESAPEAKE LGHT  0100   53      30/ 15/ 16 1017.5R
WILLOUBY STN VA  0100   57                 1017.7R
CAPE HENRY BUOY  0112      56                N/A     4/ 8
CAPE CHARLES BUO 0126      56                N/A     4/ 7   3/ 7
OFFSHORE WE BUOY 0121      54                N/A     4/ 8   3/ 8
64NM E OF VA BCH 0150   53 53  360/ 10/ 14 1016.1R   5/ 8   5/ 8
DUCK PIER NC     0100   55 67              1016.4R
44100 DUCK FRF   0124      58                N/A     4/ 7
44056 DUCK FRF   0111      58                N/A     4/ 6
OREGON INLET NC  0100   55 63              1016.1R
HATTERAS NC      0100   63 71              1015.4R
DIAMOND SHLS NC  0150   59 74   10/ 19/ 23 1016.3R   4/ 5   2/11
CAPE LOOKOUT NC  0200   66     350/  8/  9 1016.1R
$$



USA.gov is the U.S. government's official web portal to all federal, state and local government web resources and services.